Location: Amsterdam
(30.7274°N, 84.4357°W)
Time: 18:23:57
(UTC+00:00)

Altair - Pass Details

Date: 06 August 2024
Orbit: 1501 x 1682 km, 47.2° (Epoch: 07 September)

Event Time Altitude Azimuth Distance (km) Brightness Sun altitude
Rises 18:03:12 0° 230° (SW) 4,895 10.3 75.0°
Reaches altitude 10° 18:06:23 10° 231° (SW) 3,893 10.0 74.8°
Maximum altitude 18:16:22 86° 320° (NW) 1,619 9.5 73.8°
Drops below altitude 10° 18:26:00 10° 50° (NE) 3,762 9.5 72.7°
Sets 18:29:02 0° 51° (NE) 4,724 9.9 72.3°
